ATLAS 5 CENTAUR DEB, 57595

Orbit data source: Space-Track

ATLAS 5 CENTAUR DEB, 57595 is space debris in HEO originally from a launch on Wed, 17 Oct 2018 UTC launched from the Air Force Eastern Test Range (AFETR). Debris objects in space refer to the collection of defunct objects orbiting the Earth. Examples of debris include non-operational satellites, rocket bodies, and fragments generated from explosions, collisions, or faulty payload assembly.

Loading next visibility...
Identifier
57595, 2018-079HW
Orbit
HEO
Country
Flag of USUS
Related business
Flag of USUnited Launch Alliance/Lockheed Martin (US)
Manufacturer
ULA Decatur
Mission
Spacecraft
Bus & Motor
Unknown
Mass
Unknown
Launch date (UTC)
2018-10-17 (8 years ago)
Launch vehicle
Unknown
Launch site
Air Force Eastern Test Range (AFETR)
Object type
Payload
Rocket body
Debris
Shape & HBR
Unknown shape, 1.1 m
Radar Cross Section
RCS unknown

Expand to show TLE details & history
Last TLE update: 1 month ago

TLE from 1 month ago
0 ATLAS 5 CENTAUR DEB
1 57595U 18079HW  26216.76778423 -.00000134  00000-0  00000-0 0  9996
2 57595  12.7738  68.9673 4644736 246.8805  58.4294  1.69233160 29090
Epoch: 2026-08-04T18:25Z
TLE epoch observation values (Epoch: 2026-08-04T18:25:36.557Z)
Latitude
Longitude
-160.67773°
Altitude
22,156.728 km
Speed
3.813 km/s
True Right ascension
04h 36m 13s
True Declination
0° 00' 00"
Sunlit
Object was in daylight at epoch
Visualization orbit readout
Latitude
Unknown
Longitude
Unknown
Altitude
Unknown
Speed
Unknown
Apparent Right ascension
Unknown
Apparent Declination
Unknown
Sunlit
N/A
Visualization observer readout
Local Sidereal Time
13:30:55
Azimuth
Unknown
Elevation
Unknown
Doppler factor
Unknown
Orbital elements
Apogee altitude
37,185.305 km
Perigee altitude
9,552.074 km
Semi-major axis
29,746.827 km
Eccentricity
0.46447
Inclination
12.7738°
RAAN
68.9673°
Arg. of periapsis
246.8805°
True anomaly
113.09879°
Mean anomaly
58.4294°
Eccentric anomaly
84.93798°
Mean motion
0.42304 °/min
Orbital period
850.98 mins
BSTAR
0
Loading maneuver chart data...
Computing Atmospheric mass density...

Documentation

Showing up to 5 results
|